This is the latest recevied weather packets stored in our database for station/object DW9280. If no packets are shown the sender has not sent any weather packets the latest 10 day(s).
| Time | Temp. | Humidity | Pressure | Rain* | Wind** | Luminosity | Snow |
|---|---|---|---|---|---|---|---|
| 1787416059 | 18.33° C | 67% | 1021.5 hPa | 0 mm | - | 146 W/m² | - |
| 1787415758 | 18.89° C | 67% | 1021.5 hPa | 0 mm | - | 155 W/m² | - |
| 1787415460 | 18.33° C | 66% | 1021.4 hPa | 0 mm | - | 171 W/m² | - |
| 1787415155 | 18.33° C | 67% | 1021.4 hPa | 0 mm | - | 185 W/m² | - |
| 1787414857 | 18.33° C | 66% | 1021.4 hPa | 0 mm | - | 160 W/m² | - |
| 1787414556 | 18.33° C | 67% | 1021.3 hPa | 0 mm | - | 160 W/m² | - |
| 1787414259 | 18.33° C | 67% | 1021.3 hPa | 0 mm | - | 176 W/m² | - |
| 1787413957 | 18.33° C | 67% | 1021.3 hPa | 0 mm | - | 186 W/m² | - |
| 1787413657 | 18.33° C | 68% | 1021.2 hPa | 0 mm | - | 174 W/m² | - |
| 1787413356 | 18.33° C | 67% | 1021.2 hPa | 0 mm | - | 176 W/m² | - |
| 1787413181 | 18.33° C | 67% | 1021.2 hPa | 0 mm | - | 183 W/m² | - |
| 1787412879 | 18.33° C | 67% | 1021.2 hPa | 0 mm | - | 172 W/m² | - |
| 1787412579 | 18.33° C | 67% | 1021.1 hPa | 0 mm | - | 153 W/m² | - |
| 1787412158 | 18.33° C | 66% | 1021.1 hPa | 0 mm | - | 121 W/m² | - |
| 1787411857 | 18.89° C | 67% | 1021 hPa | 0 mm | - | 139 W/m² | - |
| 1787411682 | 18.89° C | 67% | 1021 hPa | 0 mm | - | 169 W/m² | - |
| 1787411258 | 18.89° C | 67% | 1021 hPa | 0 mm | - | 218 W/m² | - |
| 1787410957 | 18.89° C | 67% | 1021 hPa | 0 mm | - | 236 W/m² | - |
| 1787410655 | 18.89° C | 66% | 1021 hPa | 0 mm | - | 241 W/m² | - |
| 1787410355 | 18.89° C | 66% | 1020.9 hPa | 0 mm | - | 218 W/m² | - |
| 1787410181 | 19.44° C | 64% | 1020.9 hPa | 0 mm | - | 244 W/m² | - |
| 1787409880 | 19.44° C | 65% | 1020.8 hPa | 0 mm | - | 443 W/m² | - |
| 1787409456 | 20° C | 66% | 1020.8 hPa | 0 mm | - | 701 W/m² | - |
| 1787409151 | 19.44° C | 69% | 1020.8 hPa | 0 mm | - | 628 W/m² | - |
| 1787408851 | 19.44° C | 69% | 1020.6 hPa | 0 mm | - | 608 W/m² | - |
* Rain latest hour (hover to see other rain measurements)
** Current wind speed in m/s (hover to see current wind gust speed)